Вернуться в каталог

COSMOS 2366

АктивенВоенныеPO
NORAD 25892·PAYLOAD·🇷🇺 Russia

Запущен Aug 26, 1999 с Plesetsk Cosmodrome

Loading…

Ближайшие Пролёты (ближайшие 24 часа)

TLE

СвежийSource: Space-Track

Эпоха: Sep 14, 2026, 08:52 UTC

1 25892U 99045A   26257.37013524  .00000034  00000-0  19146-4 0  9992
2 25892  82.9268  58.0520 0032869 108.9902 269.6317 13.74698387357207

Отслеживайте COSMOS 2366 в реальном времени с AllMySat

Download on the App Store